This is the latest recevied weather packets stored in our database for station/object KD2SIG. If no packets are shown the sender has not sent any weather packets the latest 10 day(s).
| Time | Temp. | Humidity | Pressure | Rain* | Wind** | Luminosity | Snow |
|---|---|---|---|---|---|---|---|
| 1777466350 | 13.89° C | 77% | 1013.1 hPa | 0 mm | - | 73 W/m² | - |
| 1777466046 | 13.89° C | 77% | 1013.3 hPa | 0 mm | - | 56 W/m² | - |
| 1777465743 | 13.89° C | 78% | 1013.1 hPa | 0 mm | - | 53 W/m² | - |
| 1777465439 | 13.33° C | 78% | 1013 hPa | 0 mm | - | 43 W/m² | - |
| 1777465137 | 13.33° C | 78% | 1013.4 hPa | 0 mm | - | 26 W/m² | - |
| 1777464833 | 13.33° C | 77% | 1013.4 hPa | 0 mm | - | 29 W/m² | - |
| 1777464528 | 13.89° C | 78% | 1013.3 hPa | 0 mm | - | 41 W/m² | - |
| 1777464225 | 13.33° C | 77% | 1013.5 hPa | 0 mm | - | 29 W/m² | - |
| 1777463924 | 13.89° C | 77% | 1013.4 hPa | 0 mm | - | 26 W/m² | - |
| 1777463620 | 13.89° C | 77% | 1013.6 hPa | 0 mm | - | 31 W/m² | - |
| 1777463315 | 13.89° C | 77% | 1013.6 hPa | 0 mm | - | 46 W/m² | - |
| 1777463012 | 13.33° C | 77% | 1013.5 hPa | 0 mm | - | 58 W/m² | - |
| 1777462708 | 13.33° C | 78% | 1013.5 hPa | 0 mm | - | 43 W/m² | - |
| 1777462403 | 13.33° C | 78% | 1013.3 hPa | 0 mm | - | 27 W/m² | - |
| 1777462100 | 13.33° C | 78% | 1013.7 hPa | 0 mm | - | 14 W/m² | - |
| 1777461796 | 13.33° C | 77% | 1013.7 hPa | 0 mm | - | 7 W/m² | - |
| 1777461492 | 13.33° C | 77% | 1013.7 hPa | 0 mm | - | 7 W/m² | - |
| 1777461189 | 13.33° C | 77% | 1013.6 hPa | 0 mm | - | 10 W/m² | - |
| 1777460884 | 13.33° C | 77% | 1013.6 hPa | 0 mm | - | 9 W/m² | - |
| 1777460580 | 13.33° C | 77% | 1013.6 hPa | 0 mm | - | 16 W/m² | - |
| 1777460275 | 13.33° C | 78% | 1013.6 hPa | 0 mm | - | 12 W/m² | - |
| 1777459973 | 13.33° C | 77% | 1013.6 hPa | 0 mm | - | 15 W/m² | - |
| 1777459669 | 13.33° C | 77% | 1013.7 hPa | 0 mm | - | 13 W/m² | - |
| 1777459366 | 13.33° C | 77% | 1013.5 hPa | 0 mm | - | 16 W/m² | - |
| 1777459064 | 13.33° C | 77% | 1013.5 hPa | 0 mm | - | 12 W/m² | - |
* Rain latest hour (hover to see other rain measurements)
** Current wind speed in m/s (hover to see current wind gust speed)